Time,TemperatureF,DewpointF,PressureIn,WindDirection,WindDirectionDegrees,WindSpeedMPH,WindSpeedGustMPH,Humidity,HourlyPrecipIn,Conditions,Clouds,dailyrainin,SoftwareType,DateUTC
2014-04-18 00:01:00,33.7,29.0,29.57,NNE,22,2.0,7.0,79,0.00,,,0.00,Rainwise IP-100,2014-04-18 04:01:00,
2014-04-18 00:03:00,33.8,29.0,29.57,North,360,2.0,7.0,80,0.00,,,0.00,Rainwise IP-100,2014-04-18 04:03:00,
2014-04-18 00:07:00,33.4,28.0,29.57,NNE,22,2.0,4.0,81,0.00,,,0.00,Rainwise IP-100,2014-04-18 04:07:00,
2014-04-18 00:08:00,33.6,29.0,29.57,NNE,22,2.0,5.0,81,0.00,,,0.00,Rainwise IP-100,2014-04-18 04:08:00,
2014-04-18 00:13:00,33.4,28.0,29.56,NE,45,2.0,6.0,80,0.00,,,0.00,Rainwise IP-100,2014-04-18 04:13:00,
2014-04-18 00:18:00,33.3,28.0,29.56,NNE,22,4.0,6.0,79,0.00,,,0.00,Rainwise IP-100,2014-04-18 04:18:00,
2014-04-18 00:23:00,33.1,28.0,29.56,North,360,3.0,5.0,80,0.00,,,0.00,Rainwise IP-100,2014-04-18 04:23:00,
2014-04-18 00:28:00,32.9,28.0,29.56,North,360,3.0,6.0,80,0.00,,,0.00,Rainwise IP-100,2014-04-18 04:28:00,
2014-04-18 00:33:00,32.7,28.0,29.56,NE,45,2.0,5.0,81,0.00,,,0.00,Rainwise IP-100,2014-04-18 04:33:00,
2014-04-18 00:38:00,32.6,28.0,29.56,NE,45,4.0,10.0,81,0.00,,,0.00,Rainwise IP-100,2014-04-18 04:38:00,
2014-04-18 00:43:00,32.6,28.0,29.56,North,360,4.0,7.0,80,0.00,,,0.00,Rainwise IP-100,2014-04-18 04:43:00,
2014-04-18 00:49:00,32.3,28.0,29.56,NNE,22,3.0,6.0,81,0.00,,,0.00,Rainwise IP-100,2014-04-18 04:49:00,
2014-04-18 00:54:00,32.2,28.0,29.56,NNE,22,5.0,8.0,81,0.00,,,0.00,Rainwise IP-100,2014-04-18 04:54:00,
2014-04-18 00:59:00,32.1,28.0,29.56,NNE,22,3.0,6.0,81,0.00,,,0.00,Rainwise IP-100,2014-04-18 04:59:00,
2014-04-18 01:04:00,31.9,28.0,29.56,NE,45,2.0,6.0,81,0.00,,,0.00,Rainwise IP-100,2014-04-18 05:04:00,
2014-04-18 01:09:00,31.8,28.0,29.56,North,360,2.0,7.0,81,0.00,,,0.00,Rainwise IP-100,2014-04-18 05:09:00,
2014-04-18 01:14:00,31.5,28.0,29.56,NE,45,2.0,2.0,82,0.00,,,0.00,Rainwise IP-100,2014-04-18 05:14:00,
2014-04-18 01:19:00,31.2,26.0,29.56,North,360,1.0,3.0,83,0.00,,,0.00,Rainwise IP-100,2014-04-18 05:19:00,
2014-04-18 01:24:00,31.1,26.0,29.56,NE,45,1.0,4.0,83,0.00,,,0.00,Rainwise IP-100,2014-04-18 05:24:00,
2014-04-18 01:29:00,30.9,26.0,29.55,NNE,22,2.0,2.0,82,0.00,,,0.00,Rainwise IP-100,2014-04-18 05:29:00,
2014-04-18 01:34:00,30.8,26.0,29.55,North,360,2.0,6.0,82,0.00,,,0.00,Rainwise IP-100,2014-04-18 05:34:00,
2014-04-18 01:39:00,30.8,26.0,29.55,North,360,2.0,4.0,82,0.00,,,0.00,Rainwise IP-100,2014-04-18 05:39:00,
2014-04-18 01:44:00,30.8,26.0,29.54,NNE,22,2.0,5.0,82,0.00,,,0.00,Rainwise IP-100,2014-04-18 05:44:00,
2014-04-18 01:50:00,30.6,26.0,29.54,North,360,2.0,4.0,82,0.00,,,0.00,Rainwise IP-100,2014-04-18 05:50:00,
2014-04-18 01:55:00,30.3,26.0,29.54,NNE,22,2.0,3.0,83,0.00,,,0.00,Rainwise IP-100,2014-04-18 05:55:00,
2014-04-18 02:00:00,30.1,26.0,29.54,North,360,2.0,3.0,84,0.00,,,0.00,Rainwise IP-100,2014-04-18 06:00:00,
2014-04-18 02:05:00,30.1,26.0,29.54,North,360,1.0,2.0,84,0.00,,,0.00,Rainwise IP-100,2014-04-18 06:05:00,
2014-04-18 02:10:00,30.1,26.0,29.54,NW,315,2.0,2.0,84,0.00,,,0.00,Rainwise IP-100,2014-04-18 06:10:00,
2014-04-18 02:15:00,30.3,26.0,29.54,NW,315,2.0,2.0,83,0.00,,,0.00,Rainwise IP-100,2014-04-18 06:15:00,
2014-04-18 02:20:00,30.3,26.0,29.54,North,360,2.0,2.0,84,0.00,,,0.00,Rainwise IP-100,2014-04-18 06:20:00,
2014-04-18 02:25:00,30.0,26.0,29.54,North,360,1.0,2.0,84,0.00,,,0.00,Rainwise IP-100,2014-04-18 06:25:00,
2014-04-18 02:30:00,29.8,26.0,29.54,NNW,337,1.0,4.0,85,0.00,,,0.00,Rainwise IP-100,2014-04-18 06:30:00,
2014-04-18 02:35:00,29.5,28.0,29.54,NNW,337,1.0,2.0,86,0.00,,,0.00,Rainwise IP-100,2014-04-18 06:35:00,
2014-04-18 02:40:00,29.4,26.0,29.54,North,360,2.0,2.0,87,0.00,,,0.00,Rainwise IP-100,2014-04-18 06:40:00,
2014-04-18 02:45:00,29.4,26.0,29.54,North,360,1.0,2.0,87,0.00,,,0.00,Rainwise IP-100,2014-04-18 06:45:00,
2014-04-18 02:51:00,29.6,28.0,29.54,NNW,337,2.0,2.0,87,0.00,,,0.00,Rainwise IP-100,2014-04-18 06:51:00,
2014-04-18 02:56:00,29.7,28.0,29.54,NW,315,1.0,3.0,86,0.00,,,0.00,Rainwise IP-100,2014-04-18 06:56:00,
2014-04-18 03:01:00,30.0,26.0,29.54,NW,315,2.0,5.0,85,0.00,,,0.00,Rainwise IP-100,2014-04-18 07:01:00,
2014-04-18 03:06:00,30.2,26.0,29.54,NW,315,1.0,4.0,85,0.00,,,0.00,Rainwise IP-100,2014-04-18 07:06:00,
2014-04-18 03:11:00,29.9,28.0,29.54,North,360,2.0,3.0,86,0.00,,,0.00,Rainwise IP-100,2014-04-18 07:11:00,
2014-04-18 03:16:00,29.5,28.0,29.53,North,360,2.0,2.0,87,0.00,,,0.00,Rainwise IP-100,2014-04-18 07:16:00,
2014-04-18 03:21:00,29.4,26.0,29.53,NNW,337,1.0,2.0,87,0.00,,,0.00,Rainwise IP-100,2014-04-18 07:21:00,
2014-04-18 03:26:00,29.5,28.0,29.53,NNE,22,1.0,5.0,86,0.00,,,0.00,Rainwise IP-100,2014-04-18 07:26:00,
2014-04-18 03:31:00,29.4,26.0,29.53,NW,315,3.0,5.0,87,0.00,,,0.00,Rainwise IP-100,2014-04-18 07:31:00,
2014-04-18 03:36:00,29.6,28.0,29.52,NW,315,1.0,4.0,86,0.00,,,0.00,Rainwise IP-100,2014-04-18 07:36:00,
2014-04-18 03:41:00,29.6,28.0,29.52,North,360,2.0,4.0,86,0.00,,,0.00,Rainwise IP-100,2014-04-18 07:41:00,
2014-04-18 03:46:00,29.5,28.0,29.52,North,360,2.0,4.0,87,0.00,,,0.00,Rainwise IP-100,2014-04-18 07:46:00,
2014-04-18 03:52:00,29.6,28.0,29.52,North,360,2.0,5.0,86,0.00,,,0.00,Rainwise IP-100,2014-04-18 07:52:00,
2014-04-18 03:57:00,29.5,28.0,29.52,NNW,337,3.0,4.0,87,0.00,,,0.00,Rainwise IP-100,2014-04-18 07:57:00,
2014-04-18 04:02:00,29.5,28.0,29.52,NNE,22,2.0,7.0,88,0.00,,,0.00,Rainwise IP-100,2014-04-18 08:02:00,
2014-04-18 04:07:00,29.5,28.0,29.51,North,360,4.0,6.0,87,0.00,,,0.00,Rainwise IP-100,2014-04-18 08:07:00,
2014-04-18 04:12:00,29.5,28.0,29.51,North,360,2.0,5.0,88,0.00,,,0.00,Rainwise IP-100,2014-04-18 08:12:00,
2014-04-18 04:17:00,29.3,26.0,29.51,North,360,5.0,5.0,88,0.00,,,0.00,Rainwise IP-100,2014-04-18 08:17:00,
2014-04-18 04:22:00,29.2,26.0,29.51,North,360,2.0,5.0,88,0.00,,,0.00,Rainwise IP-100,2014-04-18 08:22:00,
2014-04-18 04:27:00,29.3,26.0,29.50,North,360,3.0,6.0,88,0.00,,,0.00,Rainwise IP-100,2014-04-18 08:27:00,
2014-04-18 04:32:00,29.1,26.0,29.50,NNE,22,2.0,5.0,89,0.00,,,0.00,Rainwise IP-100,2014-04-18 08:32:00,
2014-04-18 04:37:00,28.9,26.0,29.49,NNE,22,2.0,4.0,89,0.00,,,0.00,Rainwise IP-100,2014-04-18 08:37:00,
2014-04-18 04:42:00,28.7,26.0,29.49,North,360,2.0,5.0,90,0.00,,,0.00,Rainwise IP-100,2014-04-18 08:42:00,
2014-04-18 04:47:00,28.7,26.0,29.49,North,360,2.0,5.0,90,0.00,,,0.00,Rainwise IP-100,2014-04-18 08:47:00,
2014-04-18 04:53:00,28.6,26.0,29.48,North,360,2.0,3.0,90,0.00,,,0.00,Rainwise IP-100,2014-04-18 08:53:00,
2014-04-18 04:58:00,28.6,26.0,29.48,NE,45,3.0,6.0,90,0.00,,,0.00,Rainwise IP-100,2014-04-18 08:58:00,
2014-04-18 05:03:00,28.7,26.0,29.47,North,360,5.0,5.0,90,0.00,,,0.00,Rainwise IP-100,2014-04-18 09:03:00,
2014-04-18 05:08:00,28.9,26.0,29.47,NE,45,2.0,6.0,90,0.00,,,0.00,Rainwise IP-100,2014-04-18 09:08:00,
2014-04-18 05:13:00,28.9,26.0,29.45,NNE,22,7.0,7.0,90,0.00,,,0.00,Rainwise IP-100,2014-04-18 09:13:00,
2014-04-18 05:18:00,28.9,26.0,29.45,NNE,22,7.0,7.0,90,0.00,,,0.00,Rainwise IP-100,2014-04-18 09:18:00,
2014-04-18 05:23:00,29.0,26.0,29.44,NNE,22,2.0,8.0,90,0.00,,,0.00,Rainwise IP-100,2014-04-18 09:23:00,
2014-04-18 05:28:00,28.9,26.0,29.44,NNE,22,9.0,9.0,90,0.00,,,0.00,Rainwise IP-100,2014-04-18 09:28:00,
2014-04-18 05:33:00,28.9,26.0,29.44,North,360,3.0,10.0,90,0.00,,,0.00,Rainwise IP-100,2014-04-18 09:33:00,
2014-04-18 05:38:00,28.9,26.0,29.44,NNE,22,2.0,8.0,90,0.00,,,0.00,Rainwise IP-100,2014-04-18 09:38:00,
2014-04-18 05:43:00,28.9,26.0,29.44,NE,45,1.0,8.0,90,0.00,,,0.00,Rainwise IP-100,2014-04-18 09:43:00,
2014-04-18 05:48:00,28.8,26.0,29.44,NE,45,2.0,5.0,90,0.00,,,0.00,Rainwise IP-100,2014-04-18 09:48:00,
2014-04-18 05:54:00,28.7,26.0,29.45,NNE,22,2.0,6.0,90,0.00,,,0.00,Rainwise IP-100,2014-04-18 09:54:00,
2014-04-18 05:59:00,28.6,28.0,29.44,North,360,6.0,6.0,91,0.00,,,0.00,Rainwise IP-100,2014-04-18 09:59:00,
2014-04-18 06:04:00,28.6,28.0,29.45,North,360,2.0,7.0,91,0.00,,,0.00,Rainwise IP-100,2014-04-18 10:04:00,
2014-04-18 06:09:00,28.7,28.0,29.45,North,360,5.0,6.0,91,0.00,,,0.00,Rainwise IP-100,2014-04-18 10:09:00,
2014-04-18 06:14:00,28.7,28.0,29.45,NNE,22,4.0,7.0,91,0.00,,,0.00,Rainwise IP-100,2014-04-18 10:14:00,
2014-04-18 06:19:00,28.7,28.0,29.45,North,360,4.0,10.0,91,0.00,,,0.00,Rainwise IP-100,2014-04-18 10:19:00,
2014-04-18 06:24:00,28.9,28.0,29.45,North,360,1.0,6.0,91,0.00,,,0.00,Rainwise IP-100,2014-04-18 10:24:00,
2014-04-18 06:29:00,28.8,28.0,29.45,NE,45,2.0,5.0,91,0.00,,,0.00,Rainwise IP-100,2014-04-18 10:29:00,
2014-04-18 06:34:00,28.9,28.0,29.45,NW,315,2.0,7.0,91,0.00,,,0.00,Rainwise IP-100,2014-04-18 10:34:00,
2014-04-18 06:39:00,29.1,26.0,29.45,NE,45,2.0,7.0,90,0.00,,,0.00,Rainwise IP-100,2014-04-18 10:39:00,
2014-04-18 06:44:00,29.3,26.0,29.45,NNE,22,2.0,7.0,90,0.00,,,0.00,Rainwise IP-100,2014-04-18 10:44:00,
2014-04-18 06:50:00,29.7,28.0,29.46,North,360,2.0,8.0,90,0.00,,,0.00,Rainwise IP-100,2014-04-18 10:50:00,
2014-04-18 06:55:00,29.8,28.0,29.45,NE,45,2.0,4.0,90,0.00,,,0.00,Rainwise IP-100,2014-04-18 10:55:00,
2014-04-18 07:00:00,30.0,28.0,29.46,NNE,22,4.0,6.0,89,0.00,,,0.00,Rainwise IP-100,2014-04-18 11:00:00,
2014-04-18 07:05:00,30.2,28.0,29.46,NNW,337,4.0,6.0,89,0.00,,,0.00,Rainwise IP-100,2014-04-18 11:05:00,
2014-04-18 07:10:00,30.6,28.0,29.46,North,360,1.0,6.0,89,0.00,,,0.00,Rainwise IP-100,2014-04-18 11:10:00,
2014-04-18 07:15:00,30.8,28.0,29.46,NE,45,1.0,4.0,88,0.00,,,0.00,Rainwise IP-100,2014-04-18 11:15:00,
2014-04-18 07:20:00,31.2,28.0,29.47,NNW,337,4.0,8.0,87,0.00,,,0.00,Rainwise IP-100,2014-04-18 11:20:00,
2014-04-18 07:25:00,31.4,28.0,29.47,NE,45,2.0,7.0,87,0.00,,,0.00,Rainwise IP-100,2014-04-18 11:25:00,
2014-04-18 07:30:00,31.7,28.0,29.47,NE,45,2.0,6.0,86,0.00,,,0.00,Rainwise IP-100,2014-04-18 11:30:00,